{"data":{"norad_id":43480,"epoch":"2026-09-20T03:11:23.964864Z","epoch_age_seconds":47185,"freshness":"FRESH","line1":"1 43480U 18047E   26263.13291626  .00000169  00000+0  53133-4 0  9992","line2":"2 43480  86.3947  48.6060 0002023  91.8013 268.3415 14.34214316436091","mean_motion":14.34214316,"eccentricity":0.0002023,"inclination_deg":86.3947,"raan_deg":48.606,"arg_perigee_deg":91.8013,"mean_anomaly_deg":268.3415,"bstar":5.3133e-5,"rev_number":43609,"period_min":100.40340442397,"perigee_km":776.23095515414,"apogee_km":779.12619813645,"semimajor_km":7155.8155766453,"source":"CELESTRAK","updated_at":"2026-09-20T09:00:36.331056Z"}}